SCP
0 0 0 0 0 0 0 0 0 0 0 0 0 0 0 0 0 0 0 0 0 0 0 0 0 0 0 0 0 0 0 0 0 0 0 0 0 0 0 0 0 0 0
0 0 0 0 0 0 0 0 0 0 0 0 0 0 0 0 0 0 0 0 0 0 0 0 0 0 0 0 0 0 0 0 0 0 0 0 0 0 0 0 0 0 0
0 0 0 0 0 0 0 0 0 0 0 0 0 0 0 0 0 0 0 0 0 0 0 0 0 0 0 0 0 0 0 0 0 0 0 0 0 0 0 0 0 0 0
0 0 0 0 0 0 0 0 0 0 0 0 0 0 0 0 0 0 0 0 0 0 0 0 0 0 0 0 0 0 0 0 0 0 0 0 0 0 0 0 0 0 0
0 0 0 0 0 0 0 0 0 0 0 0 0 0 0 0 0 0 0 0 0 0 0 0 0 0 0 0 0 0 0 0 0 0 0 0 0 0 0 0 0 0 0
0 0 0 0 0 0 0 0 0 0 0 0 0 0 0 0 0 0 0 0 0 0 0 0 0 0 0 0 0 0 0 0 0 0 0 0 0 0 0 0 0 0 0
0 0 0 0 0 0 0 0 0 0 0 0 0 0 0 0 0 0 0 0 0 0 0 0 0 0 0 0 0 0 0 0 0 0 0 0 0 0 0 0 0 0 0
0 0 0 0 0 0 0 0 0 0 0 0 0 0 0 0 0 0 0 0 0 0 0 0 0 0 0 0 0 0 0 0 0 0 0 0 0 0 0 0 0 0 0
0 0 0 0 0 0 0 0 0 0 0 0 0 0 0 0 0 0 0 0 0 0 0 0 0 0 0 0 0 0 0 0 0 0 0 0 0 0 0 0 0 0 0
0 0 0 0 0 0 0 0 0 0 0 0 0 0 0 0 0 0 0 0 0 0 0 0 0 0 0 0 0 0 0 0 0 0 0 0 0 0 0 0 0 0 0
0 0 0 0 0 0 0 0 0 0 0 0 0 0 0 0 0 0 0 0 0 0 0 0 0 0 0 0 0 0 0 0 0 0 0 0 0 0 0 0 0 0 0
0 0 0 0 0 0 0 0 0 0 0 0 0 0 0 0 0 0 0 0 0 0 0 0 0 0 0 0 0 0 0 0 0 0 0 0 0 0 0 0 0 0 0
0 0 0 0 0 0 0 0 0 0 0 0 0 0 0 0 0 0 0 0 0 0 0 0 0 0 0 0 0 0 0 0 0 0 0 0 0 0 0 0 0 0 0
0 0 0 0 0 0 0 0 0 0 0 0 0 0 0 0 0 0 0 0 0 0 0 0 0 0 0 0 0 0 0 0 0 0 0 0 0 0 0 0 0 0 0
0 0 0 0 0 0 0 0 0 0 0 0 0 0 0 0 0 0 0 0 0 0 0 0 0 0 0 0 0 0 0 0 0 0 0 0 0 0 0 0 0 0 0
0 0 0 0 0 0 0 0 0 0 0 0 0 0 0 0 0 0 0 0 0 0 0 0 0 0 0 0 0 0 0 0 0 0 0 0 0 0 0 0 0 0 0
0 0 0 0 0 0 0 0 0 0 0 0 0 0 0 0 0 0 0 0 0 0 0 0 0 0 0 0 0 0 0 0 0 0 0 0 0 0 0 0 0 0 0
0 0 0 0 0 0 0 0 0 0 0 0 0 0 0 0 0 0 0 0 0 0 0 0 0 0 0 0 0 0 0 0 0 0 0 0 0 0 0 0 0 0 0
0 0 0 0 0 0 0 0 0 0 0 0 -0 0 0 0 0 0 0 0 0 0 0 0 0 0 0 0 0 0 0 0 0 0 0 0 0 0 0 0 0 0 0
0 0 0 -0 0 0 0 0 0 0 0 -0 -0 -0 0 0 0 0 0 0 0 0 0 0 0 0 0 0 0 0 0 0 0 0 0 0 0 0 0 0 0 0 0
-0 -0 -0 -0 -0 -0 -0 -0 -0 -0 -0 -0 -0 -0 0 0 0 0 0 0 0 0 0 0 0 0 0 0 0 0 0 0 0 0 0 0 0 0 0 0 0 0 0
-0 -0 -0 -0 -0 -0 0 0 0 0 -0 -0 0 0 0 0 0 0 0 0 0 0 0 0 0 0 0 0 0 0 0 0 0 0 0 0 0 0 0 0 0 0 0
0 -0 -0 -0 -0 0 0 0 0 0 0 0 0 0 0 0 0 0 0 0 0 0 0 0 0 0 0 0 0 0 0 0 0 0 0 0 0 0 0 0 0 0 0
0 0 0 -0 0 0 0 0 0 0 0 0 0 0 0 0 0 0 0 0 0 0 0 0 0 0 0 0 0 0 0 0 0 0 0 0 0 0 0 0 0 0 0
0 0 0 0 0 0 0 0 0 0 0 0 0 0 0 0 0 0 0 0 0 0 0 0 0 0 0 0 0 0 0 0 0 0 0 0 0 0 0 0 0 0 0
0 0 0 0 -0 -0 0 0 0 0 0 0 0 0 0 0 0 0 0 0 0 0 0 0 0 0 0 0 0 0 0 0 0 0 0 0 0 0 0 0 0 0 0
Wind_Speed
6 5 5 4 4 4 4 3 3 2 3 3 3 3 3 3 3 4 4 4 5 4 4 5 4 3 3 3 3 3 3 3 3 1 1 2 4 5 6 5 5 5 7
6 5 5 5 5 4 4 3 3 3 3 3 3 3 3 3 3 3 3 3 4 4 3 4 3 3 4 3 3 3 2 2 3 2 2 3 3 3 4 5 5 6 5
6 6 6 5 5 5 4 4 4 4 3 3 3 3 3 3 3 3 3 3 3 3 2 3 2 3 3 3 3 3 2 3 2 2 1 2 2 3 3 4 4 4 5
7 7 7 6 6 6 5 4 4 4 4 4 3 3 3 2 3 3 3 3 3 2 2 2 2 3 3 3 3 3 3 3 3 2 1 2 2 2 2 3 4 4 4
8 7 7 6 5 5 5 5 4 4 4 4 4 3 2 2 3 4 3 3 3 3 2 1 1 3 3 3 3 2 3 3 2 2 1 1 2 2 2 2 2 3 3
8 8 6 6 6 6 6 5 5 4 4 4 3 3 2 2 4 6 5 4 3 3 2 1 1 1 3 4 4 4 4 3 3 2 1 0 1 1 1 1 1 2 3
8 7 7 7 7 6 6 6 5 5 4 4 3 3 2 2 5 6 7 4 3 2 2 1 1 1 2 2 3 4 2 2 3 4 3 2 2 2 1 1 1 1 2
8 8 8 8 7 6 6 6 5 4 4 4 4 4 3 3 5 6 7 4 3 2 2 2 2 1 1 3 2 2 1 1 0 1 3 3 3 3 3 2 2 1 3
9 9 9 9 8 8 8 7 5 5 4 4 4 4 4 3 5 7 7 3 2 1 1 2 2 2 3 4 3 2 0 2 1 1 2 2 3 2 2 1 1 1 2
11 10 9 9 10 10 9 7 5 5 5 5 4 4 4 4 5 7 8 3 2 1 1 2 4 4 4 4 3 3 2 3 1 1 2 3 2 2 1 2 2 1 1
8 8 8 9 9 8 7 6 5 5 5 4 4 3 3 4 6 7 8 4 4 3 2 2 3 5 5 5 4 3 4 3 1 1 1 2 2 2 2 1 2 3 2
7 8 8 8 7 7 7 6 6 6 6 4 3 3 2 3 4 6 8 7 6 4 4 3 4 6 5 5 4 4 5 2 1 0 1 2 2 2 2 2 2 3 4
8 8 7 7 6 7 8 8 6 5 5 5 4 4 3 3 3 7 7 8 8 4 4 5 6 6 5 4 5 5 3 2 1 2 3 3 3 3 2 2 2 2 3
7 7 6 7 6 6 5 6 6 7 6 6 5 5 4 3 4 4 4 4 6 5 3 4 5 5 3 3 3 3 2 3 3 3 3 3 2 2 2 2 2 2 2
6 6 6 6 6 6 6 6 8 8 9 9 8 7 6 6 8 10 6 5 5 5 3 1 1 1 2 2 2 2 2 2 3 3 3 3 3 3 3 2 2 2 2
5 5 5 5 5 5 5 3 5 5 7 9 8 8 7 8 8 10 11 10 9 8 5 3 3 4 5 5 4 4 3 4 4 4 4 4 4 4 4 3 3 3 4
6 5 4 5 5 5 5 5 4 3 4 6 8 9 9 8 8 9 11 10 9 9 5 4 5 5 5 5 5 5 5 5 4 4 5 5 5 5 4 4 4 4 5
4 5 5 4 5 5 5 5 5 4 3 4 6 9 10 10 9 10 9 7 4 5 5 6 6 6 6 6 6 5 5 4 4 4 5 5 5 5 5 5 5 6 6
3 3 3 3 3 4 4 4 4 4 4 3 2 3 7 8 8 8 8 5 6 7 7 7 7 6 6 6 6 6 5 5 5 5 5 6 5 5 6 6 6 8 7
2 3 3 3 2 3 3 3 4 4 4 4 4 4 3 3 3 4 5 5 6 6 6 7 6 6 6 6 6 5 5 5 6 6 6 6 5 5 7 8 7 7 6
1 1 3 2 2 2 3 3 4 4 4 5 5 5 6 5 6 6 6 6 7 7 7 7 6 6 6 5 5 6 7 6 6 6 6 6 6 5 6 6 6 7 6
1 1 1 1 2 2 2 3 3 4 5 5 4 4 7 4 4 5 5 6 7 6 6 6 6 6 6 6 6 6 7 7 7 6 6 6 6 6 5 5 5 5 6
1 1 0 1 1 2 2 2 3 3 4 4 4 4 4 5 5 6 6 6 5 5 5 5 6 5 5 5 6 6 7 8 7 7 7 6 6 5 5 6 7 7 7
1 0 0 1 1 1 2 2 3 3 4 4 4 4 5 5 5 6 6 5 5 5 5 5 6 8 9 7 6 6 7 7 7 6 8 7 7 6 5 6 7 8 8
1 0 0 1 1 2 2 3 3 3 4 4 5 4 5 5 5 6 5 5 6 6 7 6 6 7 9 10 9 8 10 12 10 7 6 6 7 7 6 7 7 7 8
1 0 1 1 1 2 2 3 4 4 4 5 4 5 5 5 5 5 5 5 5 6 6 6 7 9 9 9 10 11 11 11 11 10 6 5 6 6 6 6 8 8 8
Wind_Direction
170 165 155 158 154 149 150 156 152 138 129 123 117 108 100 90 87 88 83 78 77 63 56 68 60 52 59 51 63 72 72 100 119 342 333 338 3 8 1 7 21 26 28
169 161 161 156 151 154 160 161 151 143 135 132 123 113 111 106 102 105 103 93 93 86 74 74 65 67 60 53 63 69 73 84 120 110 354 354 359 352 355 9 16 22 22
161 159 157 159 161 166 166 160 151 142 132 125 121 124 124 122 116 113 113 106 104 103 98 95 86 85 73 65 70 71 66 69 82 109 32 349 342 349 356 1 8 2 9
164 166 169 174 173 169 162 157 155 147 142 139 132 133 134 130 126 124 118 111 101 90 90 102 109 113 120 111 92 90 88 76 71 81 57 359 343 334 5 4 358 357 355
167 175 182 174 163 157 156 156 151 148 150 144 134 129 130 138 151 145 137 128 117 97 75 77 119 134 137 135 125 131 116 102 88 81 56 14 349 351 350 335 346 332 339
173 182 174 159 158 162 161 153 148 146 141 137 146 148 153 167 162 157 147 137 133 128 119 72 68 95 106 108 117 132 140 139 144 139 148 193 281 278 293 325 337 358 337
177 174 169 165 166 169 162 153 157 159 150 149 156 155 169 195 169 158 156 139 141 151 155 149 109 87 86 93 90 82 81 117 158 160 170 211 226 232 218 298 294 260 268
177 175 172 169 169 162 158 163 164 157 161 164 168 170 172 203 179 162 155 137 138 158 175 175 164 176 164 139 121 87 41 350 245 174 189 216 223 222 202 201 217 257 279
182 182 179 173 167 165 170 172 167 161 167 170 170 169 174 199 185 168 153 137 144 178 200 189 182 192 205 161 138 139 350 311 294 216 213 234 258 257 198 127 39 26 323
191 187 178 173 173 177 179 172 163 163 170 165 166 177 181 197 201 183 164 149 160 192 227 233 220 212 212 190 166 169 210 258 270 325 338 332 323 315 297 187 184 183 244
184 172 170 175 179 178 170 165 158 156 152 161 171 186 195 206 210 196 181 169 179 187 206 229 241 231 222 216 200 197 221 225 214 223 276 302 311 307 292 242 201 191 207
161 165 172 175 176 170 163 164 161 157 159 169 177 200 220 222 215 212 202 196 186 184 209 221 230 233 228 224 220 226 230 225 170 195 260 273 277 277 277 271 247 235 230
161 169 172 170 172 167 169 168 161 166 171 181 186 204 221 220 228 225 217 211 204 198 215 220 227 234 229 234 237 231 222 202 187 218 242 250 246 250 266 285 285 269 270
167 171 167 167 171 170 173 173 174 180 185 189 194 207 214 214 217 217 216 217 215 216 221 230 232 233 226 235 246 244 222 208 208 225 240 247 249 253 256 250 261 279 291
169 170 171 175 175 177 184 191 192 199 193 191 200 199 196 214 221 207 196 205 205 207 181 175 201 221 236 246 252 249 239 232 234 233 236 247 251 254 257 244 237 240 246
165 174 177 176 177 178 181 201 225 216 213 210 205 195 211 217 210 202 206 210 206 191 167 194 215 220 227 232 236 243 238 236 235 233 235 240 246 250 257 251 234 237 253
175 179 176 176 178 180 181 188 209 239 229 221 215 210 213 212 208 205 207 208 205 187 194 218 224 226 230 232 233 234 239 238 231 228 235 241 244 248 250 253 250 251 258
170 171 173 181 182 184 189 194 195 196 210 239 234 224 222 222 217 212 204 187 208 207 217 225 230 230 231 232 234 237 243 244 235 235 238 241 240 242 248 251 250 249 258
168 175 178 179 182 187 188 188 195 203 212 223 237 242 230 228 226 220 193 194 213 222 224 229 231 230 231 232 234 235 236 239 240 237 239 241 240 239 246 249 251 254 255
175 170 162 166 169 178 182 186 199 207 214 220 227 230 206 183 210 219 211 214 220 227 228 230 232 230 230 231 232 234 238 241 242 242 244 244 241 238 246 251 250 253 254
139 160 156 154 173 187 189 200 208 210 218 227 234 228 202 203 216 220 219 219 223 227 229 230 232 230 230 230 229 231 235 241 240 241 243 243 241 242 245 247 249 250 255
123 138 163 183 191 201 210 216 216 219 224 231 243 237 217 213 223 226 227 230 228 229 228 226 229 229 226 224 227 231 236 242 242 242 244 244 242 242 244 248 253 256 258
106 108 120 212 209 209 216 225 225 227 231 233 233 229 220 224 230 233 236 238 235 234 230 226 231 235 234 232 228 225 231 237 237 235 238 241 239 239 240 246 252 258 258
79 114 202 246 236 224 227 236 239 239 240 241 237 235 233 233 236 239 242 244 242 239 234 230 233 238 240 239 236 234 236 240 237 233 230 235 239 241 241 247 251 254 257
61 357 268 255 250 248 247 247 247 247 247 245 242 241 241 239 241 244 244 244 243 243 243 240 239 241 243 243 243 243 245 245 244 239 230 229 236 239 241 247 251 256 257
24 341 295 275 262 258 256 256 255 253 250 249 246 244 242 243 244 245 245 244 245 247 248 245 244 246 249 247 246 248 249 247 243 241 234 228 234 241 242 248 253 256 260